GFSFLT1_prec_radar_069.txt.gz
Reflectivity
-20 -15 -17 -17 -17 -20 -20 -20 -14 -15 -20 -20 -20 -20 -20 -20 15 28 -20 -20 -20 -20 -20 -20 -20 -20 -20 -20 -20 -20 -20 -20
-20 -20 -20 -20 -20 -20 -20 -20 -20 -20 -20 -20 -20 -20 -15 25 -20 -20 -20 -20 -20 -20 -20 -20 -20 -20 -20 -20 -20 -20 -20 -20
-20 -20 -20 -20 -20 -20 -20 -20 -20 -9 -20 -20 -20 -20 -20 -8 -4 -20 -20 -20 -20 -20 -20 -20 -20 -20 -20 -20 -20 -20 -20 -20
-20 -20 -20 -20 -20 -20 -20 -20 -20 -20 -20 -20 -20 -20 -20 -6 18 -20 -20 -20 -20 -20 -20 -20 -20 -20 -20 -20 -20 -20 -20 -20
-20 -20 -20 -20 -20 -20 -20 -20 -20 -20 -20 -20 -20 -20 13 10 -20 -8 -20 -20 -20 -20 -20 -20 -20 -20 -20 -20 -20 -20 -20 -20
-20 -20 -20 -20 -20 -20 -20 -20 -20 -20 -20 19 -20 -20 24 26 -8 -20 -20 -20 -20 -20 -20 -20 -20 -12 -20 20 -20 -20 -20 -20
-20 -20 -20 -20 -20 -20 -20 -20 -20 -20 -18 -20 -1 -20 25 27 -20 -20 -20 -20 -20 -20 -20 -20 -20 -20 -11 -5 -17 -20 -20 -20
-20 -20 -20 -20 -20 -20 -20 -20 -20 -20 0 25 -3 -7 26 23 -20 -20 -20 -20 -20 -20 -20 -20 -20 -18 26 19 -10 -20 -20 -20
-20 -20 -20 -13 -1 3 -20 -20 -15 -14 17 -20 -20 -15 -19 3 -20 -20 -20 -20 -20 -20 -20 -20 13 17 9 -19 -20 -20 -20 -20
-20 -20 -20 -20 4 23 -20 -18 2 7 -9 -20 -20 -20 -10 -18 -3 -20 -20 -20 -20 -20 -20 -16 22 30 -20 -20 -20 -20 -20 -20
-20 -20 -20 -20 -20 -20 -20 -3 -20 -20 -20 -20 -20 19 -20 -6 -7 -20 -20 -18 -20 -20 -13 19 34 -3 -20 -20 -20 -20 -20 -20
-20 -20 -20 -20 -20 -20 -8 -20 -20 -20 -20 -20 -20 -17 -20 -5 18 20 -9 -12 -20 28 29 -4 -20 -20 -20 -20 -20 -20 -20 -20
-20 -20 -20 -20 -20 -20 -14 -16 -14 -20 -20 -20 13 -20 24 -3 15 14 -16 -11 29 -18 -19 -20 -20 -20 -20 -20 -20 -20 -20 -20
-20 -20 -20 -20 -20 -20 23 -2 5 -20 -19 21 23 25 21 19 16 29 25 11 -19 -18 -20 -20 -20 -20 -20 -20 -20 -20 -20 -20
-20 -20 -20 -20 -20 -20 -20 -13 -20 -15 22 27 19 25 11 0 30 29 -1 -15 29 -4 -20 -20 -20 -20 -20 -20 -20 -20 -20 -20
-20 -20 -20 -20 -20 -20 -20 -20 -20 -19 25 21 21 1 13 35 40 19 -20 29 -8 -20 -20 -20 -20 -20 -20 -20 -20 -20 -20 -20
-20 -20 -20 -20 -20 -20 -20 30 25 -20 -20 -20 -20 1 37 27 -15 -17 27 -6 -20 2 -20 -20 -20 -20 -20 -20 -20 -20 -20 -20
-20 -20 -20 -20 -3 -16 -20 -20 -20 -20 -20 -20 1 5 -0 -20 -17 17 -20 -19 -20 -20 -20 -20 -20 -20 -20 -20 -20 -20 -20 -20
-20 -20 -20 -20 -20 -20 -6 -20 -20 -20 -20 -1 -9 -15 -17 -14 5 -19 21 -20 -20 -20 -20 -20 -20 -20 -20 -20 -20 -20 -20 -20

GFSFLT1_prec_radar_072.txt.gz
Reflectivity
19 20 -1 -15 -20 -20 -20 -13 6 -4 -18 -20 -20 -1 7 -5 -1 -19 -5 -20 -20 -20 -20 -20 -20 -20 -20 -20 -20 -20 -20 -20
-20 -6 -8 -20 -20 -20 -20 -15 -4 -20 -20 -20 -20 -9 -4 1 -2 -9 23 -20 -20 -20 -20 -20 -20 -20 -20 -20 -20 -20 -20 -20
-20 -20 -20 -20 -20 -20 -20 -5 15 -20 -20 -20 -20 -5 -1 2 -18 -20 8 -20 -20 -20 -20 -20 -20 -20 -20 -20 -20 -20 -20 -20
-12 -20 -20 -20 -20 -20 -20 -20 -20 -20 -20 -20 -20 -3 -20 -11 -9 19 -3 -20 -20 -20 -20 -20 -20 -20 -20 -20 -20 -20 -20 -20
-20 -20 -20 -20 -20 -20 -20 -20 -20 -20 -20 -20 -20 -20 -20 -20 4 21 -20 -20 -20 -20 -20 -20 -20 -20 -20 -20 -20 -20 -20 -20
-20 -20 -20 -20 -20 -20 -20 -20 -20 -20 -20 -20 -20 -20 1 13 12 35 18 -20 -20 -20 -20 -20 -20 -20 -20 -20 -20 -20 -12 -20
-20 -20 -20 -20 -20 -20 -20 -20 -20 -20 -20 -20 -20 -20 -20 -20 -20 27 19 -20 -20 -20 -20 -20 -20 -20 -20 -7 -15 18 -6 -20
-20 -20 -20 -20 -20 -20 -20 -20 -20 -20 -20 -20 14 23 15 3 -7 -3 -10 -20 -20 -13 -20 -20 -20 -20 -20 -14 22 21 -20 -20
-20 -20 -20 -20 -20 -20 -20 -20 -20 -20 -20 -14 -19 -20 -20 -6 -20 20 -20 -20 -20 -20 -20 -20 -20 -20 4 14 14 -3 -6 -20
-20 -20 -20 -20 -20 -20 -20 -20 -20 -20 10 11 9 -2 -20 16 21 20 -20 -20 -20 -20 -20 -20 -20 -18 15 5 -20 -20 -20 -20
-20 -20 -20 -20 -20 -20 -20 -20 -20 -20 -20 -20 -20 -4 -20 -4 22 2 -20 -20 -20 -20 -9 -10 16 32 18 -20 -20 -20 -20 -20
-20 -20 -20 -20 -20 -20 -20 -20 -20 -20 -20 -20 -20 -10 2 23 7 6 -5 -11 -3 19 13 26 28 -20 -20 -20 -20 -20 -20 -20
-20 -20 -20 -20 -20 -20 -20 -20 -20 -20 -20 -16 10 15 -18 17 25 24 7 11 35 18 23 20 3 -5 -20 -20 -20 -20 -20 -20
-20 -20 -20 -20 -20 -20 -20 -20 -20 -20 -20 -16 7 -20 -7 21 31 23 21 29 25 29 30 25 12 -20 -20 -20 -20 -20 -20 -20
-20 -20 -20 -20 -20 -20 -20 -20 -20 -20 -20 13 2 -2 1 6 15 34 27 31 31 23 27 13 -20 -20 -20 -20 -20 -20 -20 -20
-20 -20 -20 -20 -20 -20 -20 -20 -20 27 -20 12 -4 -13 -20 8 21 19 31 32 14 21 11 -19 -20 -20 -20 -20 -20 -20 -20 -20
-20 -20 -20 -20 -20 -20 -20 -20 -18 -19 -20 -20 2 -20 -20 -7 -18 14 12 -13 21 -20 -20 -20 -20 -20 -20 -20 -20 -20 -20 -20
-20 -20 -20 -20 -20 -20 18 16 -6 27 -20 -13 -20 -20 -18 -2 -20 -20 -20 3 -20 -20 -20 -20 -20 -20 -20 -20 -20 -20 -20 -20
-20 -20 -20 -20 -20 -20 2 27 26 23 -5 -20 -20 -20 -20 -20 -17 -20 -18 -15 -20 -20 -20 -20 -20 -20 -20 -20 -20 -20 -20 -20

GFSFLT1_prec_radar_075.txt.gz
Reflectivity
14 2 3 13 -2 -13 15 10 3 4 -11 -10 -3 15 -4 -18 -7 -20 -20 -20 -20 -20 -20 -20 -20 -20 -20 -20 -20 -20 -20 -20
15 11 14 -1 -20 -20 -20 -4 27 3 -14 -20 -20 -20 -1 5 15 -3 -7 -20 -19 -20 -20 -20 -20 -20 -20 -20 -20 -20 -20 -20
-20 -20 5 14 -20 -20 -18 -20 9 5 -20 -20 -20 -20 11 12 16 -16 -20 12 -12 -20 -20 -20 -20 -20 -20 -20 -20 -20 -20 -20
-20 -20 -20 -20 -12 -20 -20 -20 -9 -15 -20 -20 -20 0 5 3 25 -8 -20 -11 -15 -20 -20 -20 -20 -20 -20 -20 -20 -20 -20 -20
-20 -20 -20 -20 -20 -20 -20 -20 -20 -20 -20 -20 -20 1 8 2 4 -18 -20 18 -17 -20 -20 -20 -20 -20 -20 -20 -20 -20 -20 -20
-20 -20 -20 -20 -20 -20 -20 -20 -20 -20 -20 -2 -20 -20 -20 20 -16 -18 -20 1 30 -12 -20 -20 -20 -20 -20 -20 -20 -20 -20 -20
-20 -20 -20 -20 -20 -20 -20 -20 -20 -20 -20 -5 -20 -20 -20 -20 -20 16 17 -20 -3 9 -19 -12 -20 -20 -20 -20 -20 -20 -20 -10
-20 -20 -20 -20 -20 -20 -20 -20 -20 -20 -10 -14 -3 -20 -20 -9 -11 8 -20 6 13 -4 -13 -20 -20 -20 -20 -20 -20 -20 -10 -17
-20 -20 -20 -20 -20 -20 -20 -20 -20 -20 -20 -20 -18 -12 -20 -10 -17 -20 8 14 4 -16 -20 -20 -20 -20 -20 -20 -20 -20 -0 -18
-20 -20 -20 -20 -20 -20 -20 -20 -20 -20 -20 -20 -3 2 -3 1 -5 -17 -20 16 17 -20 -20 -20 -20 -20 -20 -20 9 28 -14 -19
-20 -20 -20 -20 -20 -20 -20 -20 -20 -20 -20 -20 -20 -12 -11 -0 -20 -5 5 -6 24 -19 -20 -20 -20 -18 12 29 29 2 -20 5
-20 -20 -20 -20 -20 -20 -20 -20 -20 -20 -20 -20 -20 24 -15 -19 15 3 18 21 20 6 21 -7 17 25 33 25 7 9 10 -16
-20 -20 -20 -20 -20 -20 -20 -20 -20 -20 -20 -20 1 -19 -18 23 -20 -3 21 25 29 33 35 29 22 18 28 24 12 -6 -19 -20
-20 -20 -20 -20 -20 -20 -20 -20 -20 -20 -20 -20 -20 -20 -19 12 -20 17 14 16 34 33 24 31 30 25 20 11 -2 -20 -20 -20
-20 -20 -20 -20 -20 -20 -20 -20 -20 -20 -20 -20 -13 -15 -1 5 -14 -12 -17 -20 -12 10 29 33 28 13 1 -9 -18 -20 -20 -20
-20 -20 -20 -20 -20 -20 -20 -20 -20 -20 -20 -13 12 7 10 5 -20 -20 -20 -9 17 23 -17 -10 -10 -20 -20 -20 -20 -20 -20 -20
-20 -20 -20 -20 -20 -20 -20 -20 -20 -12 -20 -20 -20 24 20 17 -20 -20 8 12 3 -2 -6 -20 -20 -20 -20 -20 -20 -20 -20 -20
-20 -20 -20 -20 -20 -20 -20 -20 -20 -17 -6 27 25 21 18 8 -20 -20 -8 -11 -16 -20 -20 -20 -20 -20 -20 -20 -20 -20 -20 -20
-20 -20 -20 -20 -20 -20 -20 -20 -20 -20 -19 6 16 11 -7 -20 -20 -20 -20 -20 -20 -20 -20 -20 -20 -20 -20 -20 -20 -20 -20 -20

GFSFLT1_prec_radar_078.txt.gz
Reflectivity
1 -1 7 -1 12 22 19 13 -9 -15 -18 -20 -20 1 3 23 13 -0 -2 11 -20 24 16 -20 -20 -20 -20 -20 -20 -20 -20 -20
-17 -7 -20 -20 -20 -18 -20 -20 -20 -20 -20 -20 -20 -5 -3 -2 -17 5 -3 -20 -20 -20 21 -20 -20 -20 -20 -20 -20 -20 -20 -20
-18 -20 -19 -19 -11 -16 -20 0 -20 -20 -20 -20 -20 -20 -17 -10 -17 29 34 -20 -10 -18 -20 -20 -20 -20 -20 -20 -20 -20 -20 -20
-19 -19 -9 -15 -7 -17 -20 -20 -20 -20 -20 -11 -20 -20 4 9 26 32 -20 6 17 30 0 -20 -20 -20 -20 -20 -20 -20 -20 -20
-20 -20 -20 -20 -20 -2 -18 -20 -7 -20 -19 -20 -20 -20 -20 -20 -20 -20 -20 -15 -20 -20 -19 -17 -20 -20 -20 -20 -20 -20 -20 -20
-20 -20 -20 -20 -20 -20 -19 -20 -20 -20 -20 -2 -20 -20 -20 -20 -20 -20 -20 -20 18 -20 20 18 6 -17 -20 -20 -20 -20 -20 -20
-20 -20 -20 -20 -20 -20 -20 -20 -20 -20 -20 -20 -20 -20 -20 -20 -20 -20 -20 -20 -20 17 -20 -20 -20 -20 -20 -20 -20 -20 -20 -20
8 -20 -20 -20 -20 -20 -20 -20 -20 -20 -20 -20 -20 -20 -20 -20 -20 -20 -20 -12 -20 -9 -6 -11 -9 -12 -20 -20 -20 -20 -20 -20
-20 19 18 -20 -20 -20 -20 -20 -20 -20 -20 -20 -20 -20 -20 -20 -20 23 -20 -20 -20 -20 15 -20 12 -20 -20 -20 -20 -20 -20 -20
-20 -20 -20 20 -20 -20 -20 -20 -20 -20 -20 -20 -20 -20 3 -9 6 23 -20 -20 -20 -20 -12 -4 19 -12 12 -5 -20 -20 -20 -10
-20 -20 -20 29 10 5 -20 -20 -20 -20 -20 -20 -20 -14 6 -10 -8 -20 -20 5 -20 -8 -17 8 16 24 20 10 -18 -11 28 29
-20 -20 -20 -20 -12 -16 -20 -20 -20 -20 -20 -20 -20 -20 2 24 -10 -20 -20 -16 -11 8 15 32 37 39 22 27 28 30 12 11
-20 -20 -20 -20 -20 -18 -20 -20 -20 -20 -20 -20 -20 -20 -19 -1 26 -20 -20 -20 -18 -20 11 29 18 33 26 31 28 31 14 -0
-20 -20 -20 -20 -20 -20 -20 -18 -0 -20 -20 29 -16 28 -14 -11 -2 -10 -16 -20 -20 -14 -20 -20 -12 4 22 34 17 -17 -13 -12
-20 -20 -20 -20 -20 -20 -20 -20 -19 4 -20 -20 -1 24 30 -19 -13 -9 7 15 12 5 -20 -20 20 8 -6 -19 -20 -20 -20 -20
-20 -20 -20 -20 -20 -20 -20 -16 -20 21 -19 -19 -18 14 28 31 15 -8 24 19 2 -20 -10 17 -11 -16 -20 -20 -20 -20 -20 -20
-20 -20 -20 -20 -20 -20 -20 -20 -20 20 -15 25 10 27 -6 26 24 -2 0 -20 -20 11 11 2 1 7 -20 -20 -20 -20 -20 -20
-20 -20 -20 -20 -20 -20 -20 -20 -2 -11 -20 -5 27 -5 17 -0 1 -10 -20 2 9 2 6 -18 -20 -20 -20 -20 -20 -20 -20 -20
-20 -20 -20 -20 -20 4 -20 -20 -20 -14 2 -20 -20 -16 11 -20 -18 7 -15 5 -18 -19 -20 -20 -20 -20 -20 -20 -20 -20 -20 -20

GFSFLT1_prec_radar_081.txt.gz
Reflectivity
5 -1 -16 -19 19 -0 3 -16 6 15 13 18 3 11 15 -17 -20 -20 6 -18 -20 -20 -11 -20 7 -20 -20 -20 -20 -20 -20 -20
1 14 9 -6 -13 -20 -20 -20 -20 -20 -20 -20 -19 -20 -20 -16 3 16 18 14 5 30 -1 18 -20 -20 -20 -20 -20 -20 -20 -20
-20 -20 -20 -20 -20 -20 -20 -20 -20 -20 -20 -20 -20 -20 -20 -20 -20 -20 -20 -18 -17 27 -20 -20 -20 -20 -20 -20 -20 -20 -20 -20
-20 -20 -20 -20 -20 -20 -20 -20 -20 -20 -20 -20 -20 -20 -20 -20 -20 -20 -20 -9 25 18 8 -17 -20 -20 -20 -20 -20 -20 -20 -20
-20 -20 -20 -20 -20 -20 -20 -20 -20 -20 -20 -20 -20 -20 -20 -20 -20 -20 -20 -20 -20 -20 -20 -20 -20 -20 -20 -20 -20 -20 -20 -20
-20 -20 -20 -20 -20 -20 -20 -20 -20 -20 -20 -20 -20 -20 -20 -20 -20 -20 -20 -17 -17 -20 -20 -20 -13 -20 -20 -20 -20 -20 -20 -20
-20 -20 -20 -20 -20 -20 -20 -20 -20 -19 -20 -20 -20 -20 -20 -20 -20 -20 -20 -20 -20 -20 -20 -20 -18 -20 -20 -20 2 -16 -19 -20
-20 -20 -20 -20 -20 -20 -20 -20 -20 -20 -20 -20 -20 -20 -20 -20 -20 -20 -20 -20 -20 7 -20 -20 -20 -5 -20 -20 -20 -20 -20 4
-20 -20 -20 -20 -20 -20 -20 -20 -20 -20 -20 -20 -20 -20 -20 -20 -20 -20 -20 7 -20 -20 -20 -20 -20 -20 -20 -20 -16 29 -15 4
-20 -20 -20 -20 -20 -20 -20 -20 -20 -20 -20 -20 -20 24 -14 -20 -20 -20 -16 -2 -20 -20 -20 -20 -17 -20 13 1 39 37 30 34
-20 -20 -20 -20 -20 -20 -20 9 -20 -20 -20 -20 -20 -20 -20 -20 -20 -20 -20 2 -20 22 17 -20 -20 -3 9 31 36 40 29 19
-20 -20 -20 -20 -14 2 -20 -20 -18 1 -20 -20 -20 -20 -19 -19 -20 -1 -20 17 28 29 21 12 -20 -19 22 -1 10 22 28 23
-20 -20 -20 -20 -20 -20 -19 -19 -20 -18 -18 -20 -9 -20 -20 32 -10 -20 -4 -12 -8 -17 -18 -20 -20 -12 -20 -20 -20 18 18 -20
-20 -20 -20 -20 -20 -20 -15 -20 18 -19 -20 -20 -20 -20 -20 37 36 36 32 11 -13 12 -2 -16 9 -2 -18 20 19 -4 -10 -20
-20 -20 -20 -20 -20 -20 -20 -13 -7 5 -20 14 -20 -20 -20 33 14 -4 28 -9 -12 5 15 29 12 5 7 10 9 7 -18 -20
-20 -20 -20 -20 -20 -20 -20 -20 -20 -20 -20 -12 -13 -20 5 27 29 32 -20 11 0 9 -20 -1 20 -3 2 22 -19 -18 -20 -20
-20 -20 -20 -20 -20 -20 -20 -20 -20 -20 29 -20 -20 -11 -20 -20 -20 -20 -19 -3 -20 -20 9 21 8 7 16 24 -18 -20 -20 -20
-20 -20 -20 -20 -20 -20 -20 -20 -2 -20 -20 5 -9 18 -18 -20 -20 2 16 -10 18 11 -12 -9 -4 20 4 -4 -20 -20 -20 -20
-20 -20 -20 -20 -20 -20 -20 -20 -20 -20 -20 -20 -20 4 7 5 8 15 13 23 15 -20 3 12 20 -20 -20 -20 -20 -20 -20 -20

GFSFLT1_prec_radar_084.txt.gz
Reflectivity
-20 -8 4 16 -1 -15 13 33 -11 -2 -3 9 13 28 28 24 15 6 -15 16 -12 18 -20 -20 -20 -20 -20 -20 -20 -20 -20 -20
-20 -20 -9 8 5 -3 9 16 12 23 12 11 20 22 2 -20 -20 12 5 -20 -20 -20 -20 -20 -20 -20 -20 -20 -20 -20 -20 -20
-20 -20 -20 -20 -20 -20 -20 -19 -20 -20 -20 -20 -20 -20 -20 -20 -20 -10 -20 -20 -20 -20 -10 -20 -14 -20 -20 -20 -20 -20 -20 -20
-20 -20 -20 -20 -20 -20 -20 -20 -20 -20 -20 -20 -20 -20 -20 -20 -20 -20 -20 -20 -20 -20 -20 -20 -20 -20 -20 -20 -20 -20 -20 -20
-20 -20 -20 -20 -20 -20 -20 -20 -20 -20 -20 -20 -20 -20 -20 -20 -20 -20 -20 -20 -20 22 -4 -20 -20 -20 -20 -20 -20 -20 -20 -20
-20 -20 -20 -20 -20 -20 -20 -20 -20 -20 -20 -20 -20 -20 -20 -20 -20 -20 -20 -20 -20 -20 -20 -20 -20 -20 -18 -20 -20 -20 -20 -20
-20 -20 -20 -20 -20 -20 -20 -20 -20 -20 -20 -20 -20 -20 -20 -20 -20 -20 -20 -20 -20 -20 -20 -20 -20 -20 24 16 -20 -20 -18 -17
-20 -20 -20 -20 -20 -20 -20 -20 -20 -20 -20 -20 -20 -20 -20 -20 -20 -20 -20 -20 -20 -20 -20 -20 -20 -4 -15 -13 0 -20 -16 -8
-20 -20 -20 -20 -20 -20 -20 -20 -20 -20 -20 -20 -20 -20 -20 -20 -20 -20 -20 -20 -20 -20 -20 -20 -20 -20 19 -4 -19 18 -2 38
-20 -20 -20 19 -20 -20 -20 -20 -20 -20 -20 -20 -20 -20 -20 -20 -20 -20 -20 19 22 -20 -3 23 -20 -20 -20 -20 12 2 28 1
-20 -20 -20 -20 -7 -20 -1 -5 -20 -20 -20 -20 -20 -20 -20 -20 -20 -20 -4 -20 -2 28 28 26 24 0 -20 -20 -20 14 8 11
-20 -20 -20 -20 -14 -11 28 21 21 6 -20 -20 -20 -20 -20 -20 -20 -20 3 -4 25 27 30 27 22 -4 -20 -20 -20 20 -20 -20
-20 -20 -20 -20 -20 -20 -20 28 6 26 23 -20 -20 -20 -20 -20 32 -18 26 31 30 30 27 29 21 -20 -20 -20 -20 -15 -20 -14
-20 -20 -20 -20 -20 -20 -20 -20 -20 27 -20 -20 -14 -20 16 -20 -20 -1 28 39 37 22 23 20 -20 -20 -20 -7 -1 14 -14 23
-20 -20 -20 -20 -20 -20 -20 -20 -20 -20 -20 -20 -20 -20 -20 -20 5 22 40 26 -10 -20 19 -20 -0 -20 -20 -20 -5 24 18 31
-20 -20 -20 -20 -20 -20 -20 -20 -20 -20 -20 -20 -20 -19 3 -11 30 34 -4 -6 25 -20 -20 -20 16 -2 -20 -4 17 6 -11 8
-20 -20 -20 -20 -20 -20 -20 -20 -20 -20 -20 -20 -20 -20 -20 -20 29 -20 -20 -6 -9 22 22 15 -20 -11 26 32 26 4 19 3
-20 -20 -20 -20 -20 -20 -20 -20 -20 -20 -20 -20 -20 -9 6 4 2 -16 -6 19 20 21 -5 13 12 2 22 16 19 31 -12 -20
-20 -20 -20 -20 -20 -20 -20 -20 -3 -2 0 3 -3 -18 6 -15 12 6 2 3 6 16 20 7 17 32 29 7 30 -14 -20 -20

GFSFLT1_prec_radar_087.txt.gz
Reflectivity
-19 -7 0 16 30 -6 24 15 11 17 -7 28 26 3 -19 20 12 25 16 0 17 -20 -20 -20 -20 -20 -20 -20 -20 -20 -20 -20
-20 9 17 11 6 -3 26 23 25 19 15 16 4 -6 20 29 15 21 11 15 -18 -20 -20 -20 -20 -20 -20 -20 -20 -20 -20 -20
-19 4 7 -9 -17 15 9 9 23 -6 26 12 5 9 3 24 13 12 6 -2 -20 -20 -20 -20 -20 -20 -20 -7 -20 -20 -20 -20
-15 1 14 10 -7 -15 -20 -9 7 -5 8 13 9 8 14 -10 -2 -10 -20 -13 -20 -20 -20 -20 -20 -20 -12 -20 -20 -20 -20 -20
-20 -20 -10 -13 -18 -20 -20 -20 -20 -20 -20 -20 -19 -16 -20 -20 -20 -20 -20 -20 -20 -10 4 -20 16 1 -20 -20 -20 -20 -20 -20
-20 -20 -20 -20 -19 -20 -20 -20 -20 -20 -20 -20 -20 -20 -20 -20 -20 -20 -20 -20 -20 -20 -1 -16 -20 -20 -20 -20 -20 -20 -20 -17
-20 -20 -20 -20 -20 -20 -20 -20 -20 -20 -20 -20 -20 -20 -20 -20 -20 -20 -20 -20 -20 -20 -20 -20 -20 -20 -20 -20 -9 -3 5 -15
-20 -20 -20 -20 -20 -20 -20 -20 -20 -20 -20 -20 -20 -20 -20 -20 -20 -20 -20 -20 -20 -20 -20 -20 -20 -20 -20 21 -2 -20 -20 -8
-20 -20 -20 -20 -20 -20 -20 -20 -20 -20 -20 -20 -20 -20 -20 -20 -20 -20 -20 -20 -20 -20 -20 -20 19 -20 -20 -20 -20 -20 -20 18
-20 -20 -20 -20 -20 -20 -20 -20 -20 -20 -20 -20 -20 -20 -20 -20 -20 -20 -20 -20 -20 -20 -20 -20 -20 -20 -8 -9 21 25 -8 -18
-20 -20 -20 -20 -20 -20 -20 5 -19 -20 -20 -20 -20 -20 -20 -20 -20 -20 -20 -20 -20 -20 -20 -6 -20 -5 -0 18 23 -20 -11 5
-20 -20 -20 -20 -20 -20 -6 10 1 -7 -19 -20 -20 -20 -20 -20 -20 -20 -15 -5 -12 -20 -20 17 23 25 42 27 -19 -20 -20 -19
-20 -20 -20 -20 -20 -20 -20 15 3 25 18 -0 -10 -20 -20 -20 -20 -20 -20 -20 -7 29 29 29 39 40 22 33 -19 7 2 -20
-20 -20 -20 -20 -20 -20 -20 -20 -15 23 16 17 13 -20 -20 -16 -20 -20 11 15 27 36 43 37 39 23 27 23 20 -20 -20 -20
-20 -20 -20 -20 -20 -20 -20 -20 -20 -20 -20 -20 -20 -3 -20 -12 -15 12 19 18 29 27 24 12 6 18 20 6 -20 -20 -5 -14
-20 -20 -20 -20 -20 -20 -20 -20 -20 -20 -20 -20 -20 -20 7 9 23 -7 -2 1 31 16 -20 -20 -20 17 11 2 -20 -18 13 -2
-20 -20 -20 -20 -20 -20 -20 -20 -20 -20 -20 -20 -20 -20 19 4 5 21 14 11 11 26 -20 -20 -20 17 23 14 6 -20 18 36
-20 -20 -20 -20 -20 -20 -20 -20 -20 -20 -20 -20 -15 -11 -10 8 -8 -20 20 -1 22 -1 3 -11 14 -7 33 28 20 19 18 14
-20 -20 -20 -20 -20 -20 -20 -20 -20 -20 -20 3 1 9 -8 -20 -20 -20 -9 17 -13 -7 13 26 25 34 25 24 23 30 37 34

GFSFLT1_prec_radar_090.txt.gz
Reflectivity
-8 -3 -20 -13 -14 7 19 0 8 25 7 24 15 17 14 -3 9 -10 -16 20 -20 -20 -19 -5 1 -6 -20 -20 -20 -20 -20 -20
-1 -5 -20 -20 -13 8 -4 18 22 -6 8 19 29 22 -15 -20 -20 16 8 14 -6 13 6 1 2 -20 -20 -20 -20 -20 -20 -20
-12 -16 -20 -20 -20 -19 -16 9 29 14 12 19 32 31 24 -18 14 1 3 24 3 12 13 9 -3 -20 -20 -20 -20 -20 -20 -20
-20 -2 -20 -20 -20 -18 -15 -14 20 17 -1 -15 23 16 19 18 17 8 -8 14 20 22 19 -20 -20 -20 -20 -20 -20 -20 -20 -20
-20 -9 -0 -20 -20 7 -20 13 15 -5 14 3 19 13 8 -17 -19 5 19 15 7 -1 -10 -1 -20 -20 -20 -20 -20 -8 -17 -20
-20 -20 -20 -20 -20 -17 -20 -20 -8 -5 -20 -20 -16 -20 -20 -14 9 15 16 -4 -20 -20 -20 -20 -20 -20 -20 -16 -12 -20 16 -19
-20 -20 -20 -20 -20 -20 -20 -20 -20 -20 -20 -20 -20 -20 -20 -20 -20 -20 -20 -20 -20 -20 -20 -20 -20 -20 -20 -20 20 15 15 12
-20 -20 -20 -20 -16 -7 -0 -20 -20 -20 -20 -20 -20 -20 -20 -20 -20 -20 -20 -20 -20 -20 -20 -20 -20 -20 -20 -20 -20 22 18 17
-20 -20 -20 -20 -20 8 3 -20 -20 -20 -20 -20 -20 -20 -20 -20 -20 -20 -20 -20 -20 -20 -20 -20 -20 -20 -20 -20 -20 17 19 25
-20 -20 -20 -20 -20 -20 -20 -20 -20 -20 -20 -20 -20 -20 -20 -20 -20 -20 -20 -20 -20 -20 -20 -20 -20 -20 -20 -20 -20 8 -16 24
-20 -20 -20 -20 -20 -20 -20 -16 -20 -20 -20 -20 -20 -20 -20 -20 -20 -20 -20 -20 -20 -20 -20 -20 -20 -7 8 13 11 4 22 26
-20 -20 -20 -20 -20 -20 -20 -0 -20 -20 -20 -20 -20 -20 -20 -20 -20 -20 -20 -20 -20 -20 -20 -20 -20 5 3 15 23 29 37 33
-20 -20 -20 -20 -20 -20 -20 -20 -20 -20 -20 -17 17 -19 -20 -20 -20 -20 -20 -20 -20 -20 15 19 23 29 32 24 19 42 40 31
-20 -20 -20 -20 -20 -20 -20 -20 -20 -20 -18 -17 9 29 13 -20 -20 -20 -20 -20 -20 17 16 28 27 21 18 27 36 37 22 21
-20 -20 -20 -20 -20 -20 -20 -20 -20 -20 -20 -20 -20 -18 -20 -20 -9 -20 -20 -20 -3 -6 26 38 12 -20 -15 -20 -19 -4 24 26
-20 -20 -20 -20 -20 -20 -20 -20 -20 -20 -20 -20 -20 -20 -20 -20 -20 -20 -5 23 0 21 13 7 24 -20 -20 -20 -20 -19 20 16
-20 -20 -20 -20 -20 -20 -20 -20 -20 -20 -20 -20 -20 -20 -20 -20 -20 12 -11 20 16 -20 23 26 18 2 10 13 -9 -17 2 -11
-20 -20 -20 -20 -20 -20 -20 -20 -20 -20 -20 -20 -20 -20 2 -4 -10 -10 -20 -20 14 16 1 6 12 14 7 15 18 5 30 25
-20 -20 -20 -20 -20 -20 -20 -20 -20 -20 -20 -20 -20 -7 -0 1 -15 8 18 20 7 6 18 13 17 18 21 23 25 20 36 40

GFSFLT1_prec_radar_093.txt.gz
Reflectivity
-13 -3 -1 -20 -20 -18 -20 1 -19 11 27 28 31 34 32 33 29 27 26 -7 -17 -19 -20 -20 -20 -20 -20 -20 -20 -20 -20 -20
-20 -16 -2 -17 -20 -20 -1 19 17 15 20 26 28 24 25 23 26 26 24 25 7 8 2 -18 -20 -20 -9 -14 -20 -20 -20 -20
-20 -2 -0 -20 -20 -20 -20 -20 3 5 19 26 19 12 -10 6 11 22 26 18 19 9 -14 -3 -10 -18 -20 -20 -20 -20 -1 -0
-20 -6 -10 -9 -17 -20 -20 -20 -19 2 21 -6 26 23 18 9 6 1 3 0 24 12 28 8 12 4 4 1 -20 -6 -20 5
-20 -20 -3 -3 -20 -20 -20 -20 -16 19 -7 13 -4 -5 28 28 16 -20 -14 -20 -18 7 10 -4 -16 3 14 -11 -20 -20 -20 -20
-20 -20 -20 -20 -20 -20 -20 -20 -19 -19 -20 9 10 1 1 -1 4 -9 -12 -19 -19 -9 11 22 -1 -5 -20 -20 -17 -20 22 -18
-20 -20 -20 -20 -20 -20 -20 -20 -15 -2 -7 9 -20 -12 -2 -11 -12 -20 -20 -2 -0 14 12 12 -12 -20 -20 -20 -18 -20 22 26
-20 -20 -20 -20 -20 -20 -20 -20 -19 -11 -13 -19 -20 -20 -20 -20 -20 -20 -20 -20 -20 -20 -20 -20 -17 -20 -20 -20 -20 2 25 14
-20 -20 -20 -20 -20 -20 -20 -20 -20 -20 -20 -20 -20 -20 -20 -20 -20 -20 -20 -20 -20 -20 -20 -20 -20 -20 -20 -20 -20 -20 -20 -20
-20 -20 -20 -20 -20 -20 -20 -20 -20 -20 -20 -20 -20 -20 -20 -20 -20 -20 -20 -20 -20 -20 -20 -20 -20 -20 -20 -20 -20 -20 -20 -20
-20 -20 -20 -20 -20 -20 -20 -8 -13 -20 -20 -20 -20 -20 -20 -20 -20 -20 -20 -20 -20 -20 -20 -20 -20 -20 -20 -20 -20 -20 -20 -20
-20 -20 -20 -20 -20 -20 -20 -20 -20 -20 -20 -20 -20 -20 -20 -20 -20 -20 -20 -20 -20 -20 -20 -20 -20 -20 -20 -20 -20 -20 -5 22
-20 -20 -20 -20 -20 -20 -20 -20 -20 -20 -20 -20 -20 -20 -20 -10 -20 -20 -20 -20 -20 -20 -20 -20 -20 -20 -20 -7 25 33 36 36
-20 -20 -20 -20 -20 -20 -20 -20 -20 -20 -20 -18 -20 -20 -19 3 -8 -20 -20 -20 -20 -20 -20 -20 -20 -12 21 40 17 -10 6 3
-20 -20 -20 -20 -20 -20 -20 -20 -20 -20 -20 -20 -20 -20 -20 -20 -19 -20 -1 -20 -20 -20 -20 -20 -20 -20 12 21 -17 -20 -6 -2
-20 -20 -20 -20 -20 -20 -20 -20 -20 -20 -20 -20 -20 -20 -20 -20 -20 10 -13 -20 -20 -20 -20 16 -20 -10 -13 -20 13 23 -9 -20
-20 -20 -20 -20 -20 -20 -20 -20 -20 -20 -20 -20 -20 -20 -20 -20 -20 -20 -19 -19 -4 5 -20 -20 -20 -19 17 11 10 6 20 0
2 -20 -20 -20 -20 -20 -20 -20 -20 -20 -20 -20 -20 -20 -20 -20 -20 -18 11 11 -12 -20 -20 -7 9 3 23 18 14 13 8 1
-19 -20 -20 -20 -20 -20 -20 -20 -20 -20 -20 -20 -20 -20 -20 -14 -20 -20 -20 -20 -20 -16 6 15 17 14 19 12 10 8 5 3

GFSFLT1_prec_radar_096.txt.gz
Reflectivity
-20 -20 -20 -10 0 8 17 -2 -10 -5 12 23 33 34 31 23 17 23 28 31 31 25 -18 -1 -1 -20 -20 -20 -20 -20 -20 -20
-20 -20 -20 -17 0 -2 -3 -20 -3 -6 -0 26 35 34 32 26 23 35 31 33 26 9 22 0 -20 -20 -20 -20 -20 -20 -20 -20
-20 -20 -20 -4 2 2 -16 -16 -1 -14 -4 23 31 31 31 29 31 34 31 25 22 20 7 10 -13 -16 -20 -20 -20 -20 -20 -20
-20 -20 -20 2 -6 -7 -3 -8 -11 18 1 10 26 28 33 30 29 29 29 16 14 10 13 -20 -1 -7 -20 -20 -20 -20 -20 -20
-20 -20 -20 -8 -20 3 3 -15 -3 15 -14 18 14 28 32 28 21 28 29 28 20 3 -9 -20 -14 -20 -20 -5 -20 -20 -20 -20
-20 -20 -20 -20 -15 -1 -19 2 -10 -20 -20 -12 4 -10 8 27 20 -10 3 -6 15 10 17 -11 -20 -19 -8 -1 -15 -20 -20 -20
-20 -20 -20 -20 -12 -1 -3 -3 1 -20 -20 -18 -4 -1 -4 7 22 16 -19 6 14 10 25 16 25 23 3 -20 -20 -20 -20 -20
-20 -20 -20 -20 -20 -10 -0 -3 -11 -18 -20 -20 -20 -20 -19 -16 -13 13 1 -20 16 20 23 4 -11 -20 -20 -20 -20 -20 -20 -20
-20 -20 -20 -20 -20 -20 -5 -0 -12 -20 -20 -20 -20 -20 -20 -20 -13 -20 -20 -20 -20 -20 -20 -20 -20 -20 -20 10 25 -15 -20 -20
-20 -20 -20 -20 -20 -20 -20 -20 -6 -19 -20 -20 -20 -20 -20 -20 -20 -20 -20 -20 -20 -20 -20 -20 -20 -20 14 14 -16 -13 -1 -15
-20 -20 -20 -20 -20 -20 -20 -20 -20 -16 -13 -20 -20 -20 -20 -20 -20 -20 -20 -20 -20 -20 -20 -20 -20 -20 -20 -20 -20 -20 10 3
-20 -20 -20 -20 -20 -20 -20 -20 -20 -20 -20 -20 -20 -20 -20 -20 -20 -20 -20 -20 -20 -20 -20 -20 -20 -20 -20 -3 -20 -20 -20 -20
-20 -20 -20 -20 -20 -20 -20 -16 -20 -20 -20 -20 -20 -20 -20 -20 -20 -20 -20 -20 -20 -20 -20 -20 -20 -20 -20 -20 -20 -20 -20 -14
-20 -20 -20 -20 -20 -20 -20 -20 -20 -20 -20 -20 -20 -20 -20 -20 -20 -20 -20 -20 -20 -20 -20 -20 -20 -20 -20 -20 -20 -20 7 7
-20 -20 -20 -20 -20 -20 -20 -20 -20 -20 -20 -20 -20 -20 -20 -20 -20 -20 -20 -20 -20 -20 -20 -20 -20 -20 -20 -20 1 -1 6 -7
-20 -20 -20 -20 -20 -20 -20 -20 -20 -20 -20 -20 -20 -20 -20 -20 -20 -20 -20 -20 -20 -20 -20 -20 -20 -20 -20 -14 -16 3 14 -17
-20 -20 -20 -20 -20 -20 -20 -20 -20 -20 -20 -20 -20 -20 -20 -20 -20 -20 -20 -20 -20 -20 -20 -20 -20 -9 18 11 17 5 16 15
-20 -20 -20 -20 -20 10 -18 -20 -20 -20 -20 -20 -20 -20 -20 -20 -20 -20 -20 -10 -4 -2 -2 7 12 3 21 17 15 12 4 -8
-20 7 2 -20 -20 -20 -13 -20 -20 -20 -20 -20 -20 -20 -20 -20 -20 -5 5 15 1 -20 2 7 12 16 15 17 7 1 0 -8

GFSFLT1_prec_radar_102.txt.gz
Reflectivity
-20 -20 -20 -20 -20 -20 -16 -18 -3 -3 -20 -20 -20 15 23 24 -7 -20 21 29 32 9 8 -19 26 0 7 -2 -19 -20 -20 -20
-20 -20 -20 -20 -20 -20 -20 -14 -14 -20 -20 -0 -2 -20 -19 22 17 9 -8 20 30 25 16 -15 27 12 19 -16 -20 -20 -20 -20
-20 -20 -20 -20 -20 -20 -20 0 -20 -20 -18 -13 -20 -20 -20 -11 27 9 9 15 18 25 23 -0 6 -18 24 13 -16 -4 -20 -13
-20 -20 -20 -20 -20 -20 -20 -20 -20 -20 -12 -10 -20 4 10 20 23 33 -9 1 12 19 21 16 14 -1 5 9 -17 6 -5 13
-20 -20 -20 -20 -20 -20 -20 -1 -20 -2 -20 -4 -11 6 13 28 18 21 30 19 23 23 18 17 17 24 22 7 9 15 20 17
-20 -20 -20 -20 -20 -20 10 -7 2 -20 -20 -20 17 15 18 28 34 37 22 32 26 15 21 16 16 23 19 25 29 20 6 18
-20 -20 -20 -20 -20 -20 -12 10 8 -20 -20 -20 -20 3 11 14 28 34 36 26 28 27 19 26 30 32 31 30 25 9 -1 -9
-20 -20 -20 -20 -20 -20 -20 2 6 -16 -20 -15 -20 -20 -8 -2 4 22 28 32 29 29 31 29 26 26 30 24 19 13 -20 -20
-20 -20 -20 -20 -20 -20 -20 10 12 4 -20 -20 -20 -20 -20 -17 -5 -20 -1 25 26 27 25 25 25 22 24 19 32 27 -20 -20
-20 -20 -20 -20 -20 -20 -20 -14 7 7 -20 -20 -20 -20 -20 -20 -20 -12 -19 -8 1 10 -5 14 12 18 20 18 6 14 -20 -20
-20 -20 -20 -20 -20 -20 -20 -20 -20 -2 -1 -20 -20 -20 -20 -20 -20 -20 -20 -20 -5 4 6 14 5 -4 5 -5 -7 -16 -12 -20
-20 -20 -20 -20 -20 -20 -20 -20 -20 -20 -20 -14 -20 -20 -20 -20 -20 -20 -20 -20 -20 -20 -20 -20 -17 -20 -20 -20 -20 -20 -20 -20
-20 -20 -20 -20 -20 -20 -20 -20 -20 -20 -20 -20 -20 -20 -20 -20 -20 -20 -20 -20 -20 -20 -20 -20 -20 -20 -20 -20 -20 -20 -20 -20
-20 -20 -20 -20 -20 -20 -20 -20 -20 -20 -20 -20 -20 -20 -20 -20 -20 -20 -19 -5 3 -15 -8 -17 -20 -16 -20 -20 -20 -20 -20 -16
-20 -20 -20 -20 -20 -20 -20 -20 -20 -20 -20 -20 -20 -20 -20 -20 -20 -20 -20 -20 -20 -20 -20 -17 -20 -11 -10 -9 3 5 8 17
0 -20 -20 -20 -20 -20 -20 -20 -20 -20 -20 -20 -20 -20 -20 -20 -20 -20 -20 -20 -20 -20 -8 2 7 12 -13 -20 10 -11 -20 -12
23 13 -20 -20 -20 -20 -20 -20 -20 -20 -20 -20 -20 -20 -20 -20 -20 -20 -20 -6 -1 5 -1 -20 -20 -20 10 13 15 -20 -20 -20
-15 9 18 -20 -20 -20 -20 -20 -20 -20 -20 -20 -20 -20 -20 -20 -20 -20 2 -12 -20 -20 6 16 16 10 17 12 14 -13 0 21
-8 -20 19 9 -6 -20 -20 -20 -20 -20 -20 -20 -20 -20 -20 -20 -20 -20 -3 -1 12 9 9 4 0 2 14 13 22 17 16 29

GFSFLT1_prec_radar_105.txt.gz
Reflectivity
-20 -20 -20 -20 -20 -20 -20 -20 -20 -20 -20 -20 7 9 -5 5 4 3 29 22 9 -2 4 -19 -6 -20 -20 -20 -20 -20 -20 -20
-20 -20 -20 -20 -20 -20 -20 -20 -8 -20 -20 -20 -20 -14 15 -0 -20 -20 12 -15 -20 14 23 -16 -18 -4 -20 -20 -20 -20 -20 -20
-20 -20 -20 -20 -20 -20 -20 -19 -3 -20 -20 -20 -20 -20 -20 16 6 -11 20 -20 -18 12 28 -12 -7 20 16 1 -20 -20 -20 -20
-20 -20 -20 -20 -20 -20 -20 -20 -20 -20 -1 -20 -20 -20 -20 1 26 17 -1 7 7 12 22 -1 6 18 5 3 9 10 -20 -20
-20 -20 -20 -20 -20 -20 -20 -5 -20 -20 7 -7 -15 -7 -20 -20 9 32 13 26 16 23 19 10 1 27 29 21 25 -1 -20 -19
-20 -20 -20 -20 -20 -20 -20 -12 -0 -19 -5 -18 -20 -20 -20 5 -16 25 36 22 28 14 18 20 19 25 29 29 26 19 14 17
-20 -20 -20 -20 -20 -20 -20 0 -20 -20 -5 10 -16 -20 -20 -16 21 3 35 25 24 26 19 17 26 25 14 19 21 14 27 27
-20 -20 -20 -20 -20 -20 -20 -20 -20 -20 -10 -4 -20 -20 -20 -20 6 19 29 31 33 26 27 29 28 24 24 31 23 27 28 21
-20 -20 -20 -20 -20 -20 -20 -20 -20 -20 -20 7 -20 -20 -20 -20 -0 9 20 25 29 37 33 30 30 33 27 23 19 21 18 22
-20 -20 -20 -20 -20 -20 -20 -20 -20 -20 -20 -5 -20 -20 -20 -20 -20 -11 23 -1 21 25 28 31 31 24 23 25 22 2 4 17
-12 -20 -20 -20 -20 -20 -20 -20 -20 -20 -20 -9 -20 -20 -20 -20 -20 -18 -19 -20 -19 -1 15 26 21 18 19 13 9 20 8 17
-16 -20 -20 -20 -20 -20 -20 -20 -20 -20 -20 -20 -20 -20 -20 -20 -20 -20 -20 -19 -20 -20 -20 -19 3 -16 -18 -5 -13 -13 -20 -16
-1 -17 -20 -20 -20 -20 -20 -20 -20 -20 -20 -20 -20 -20 -20 -20 -20 -20 -20 -20 -20 -20 -20 -20 -20 -20 -20 -20 -20 -20 -20 -20
29 -13 -20 -20 -20 -20 -20 -20 -20 -20 -20 -20 -20 -20 -20 -20 -20 -20 -20 -20 -20 -20 -20 -20 -20 -20 -20 -20 -20 -20 -20 -20
24 9 -20 -20 -20 -20 -20 -20 -20 -20 -20 -20 -20 -20 -20 -20 -20 -20 -20 -20 -20 -20 -20 -20 -4 -20 -20 -20 -20 -19 -15 -13
-19 19 25 -20 -20 -20 -20 -20 -20 -20 -20 -20 -20 -20 -20 -20 -20 -20 -20 -20 -20 -20 -20 -20 -20 -20 -19 -20 -20 5 15 -5
-20 -20 20 22 -20 -20 -20 -20 -20 -20 -20 -20 -20 -20 -20 -20 -20 -20 -20 -20 -20 -20 -20 -20 -20 -20 11 14 12 -13 -20 -14
-20 8 -10 22 30 -20 -20 -20 -20 -20 -20 -20 -20 -20 -20 -20 -20 -20 -19 -20 -20 -20 13 5 10 -20 15 14 10 6 17 9
-20 -12 -5 2 4 12 -20 -20 -20 -20 -20 -20 -20 -20 -20 -20 -20 -20 -16 -8 15 8 9 8 2 11 18 17 20 8 -13 -16

GFSFLT1_prec_radar_108.txt.gz
Reflectivity
-20 -20 -20 -20 -20 -20 -20 -20 -20 -20 -20 -12 -20 -17 -20 14 34 35 34 31 3 -16 -12 -20 -20 -20 -20 -20 -20 -20 -20 -20
-20 -20 -20 -20 -20 -20 -20 -20 -20 -20 -20 12 13 -20 -20 10 18 18 35 33 23 14 -20 -20 -20 -20 -20 -20 -20 -20 -20 -20
-20 -20 -20 -20 -20 -20 -20 -20 -20 -20 -20 -20 -20 5 -14 -15 -15 9 12 28 22 -20 -20 -20 -20 -20 -8 -20 -20 -20 -20 -17
-20 -20 -20 -20 -20 -20 -20 -20 -20 -20 -20 -20 -20 -20 22 6 10 7 9 8 -1 -20 11 1 -12 -20 -20 -20 -20 -20 -20 -13
-20 -20 -20 -20 -20 -20 -20 -20 -20 -20 -20 -20 -20 -20 -12 16 -5 -20 16 -6 -20 -20 -10 18 19 -10 -20 -11 -20 -20 -20 -20
-20 -20 -20 -20 -20 -20 -20 -20 -20 -18 -20 -20 -20 -20 -20 -20 9 24 26 24 16 11 16 11 29 22 -3 3 -9 -7 -20 13
-20 -20 -20 -20 -20 -20 -20 -20 -20 -20 -20 -16 -15 -20 -20 -9 2 -12 30 35 28 25 16 1 24 12 5 -0 9 -8 25 23
-20 -20 -20 -20 -20 -20 -20 -20 -20 -20 -20 -20 -11 -20 -20 -20 -13 18 5 39 33 32 28 26 24 28 28 33 30 35 33 34
-20 -20 -20 -20 -20 -20 -20 -20 -20 -20 -20 -10 -20 -20 -20 -19 -20 16 25 31 34 34 32 26 17 29 30 33 35 34 33 32
-20 -20 -20 -20 -20 -20 -20 -20 -20 -20 -16 8 -20 -20 -20 -20 -20 10 22 32 34 35 23 31 27 28 28 35 33 32 32 31
-20 5 1 -20 -20 -20 -20 -20 -20 -20 -20 12 -7 -20 -20 -20 -20 -20 6 22 30 30 33 34 34 37 31 29 27 30 30 23
2 18 -1 -20 -20 -20 -20 -20 -20 -20 -20 -4 9 -20 -20 -20 -20 -20 -20 -12 22 31 27 36 30 33 36 30 27 22 16 20
-13 9 -9 -20 -20 -20 -20 -20 -20 -20 -20 -20 -3 -20 -20 -20 -20 -20 -20 -20 -20 -19 -5 30 32 23 -9 -19 -19 -13 5 8
-20 4 1 -20 -20 -20 -20 -20 -20 -20 -20 -20 -5 -19 -20 -20 -20 -20 -20 -20 -20 -20 -20 -20 -6 -12 -20 -20 -20 -20 9 -2
-20 12 18 24 30 -20 -20 -20 -20 -20 -20 -20 -20 -20 -20 -20 -20 -20 -20 -20 -20 -20 -20 -20 -20 -20 -20 -20 -20 -20 -20 -20
-20 30 29 25 24 22 17 -20 -20 -20 -20 -20 -20 -20 -20 -20 -20 -20 -20 -20 -20 -20 -20 -20 -20 -20 -20 -20 -20 -20 -20 -19
-7 8 36 12 25 25 24 26 -20 -20 -20 -20 -20 -20 -20 -20 -20 -20 -20 -20 -20 -20 -20 -20 -20 -20 6 1 2 -17 -2 1
11 7 2 -4 8 21 25 27 20 -17 -20 -20 -20 -20 -20 -20 -20 -20 -20 -20 -20 -20 -20 -14 -20 -19 12 11 12 6 17 17
9 13 1 -20 11 0 18 22 27 -2 7 -20 -20 -20 -20 -20 -20 -20 -20 -20 -20 -15 5 9 6 9 15 14 15 5 -8 -6

GFSFLT1_prec_radar_111.txt.gz
Reflectivity
-20 -20 -20 -20 -20 -20 -20 -20 -20 -20 -20 -6 -20 -20 -20 -10 25 23 28 33 11 20 -14 -20 -20 -20 -20 -20 -20 -20 -20 -20
-20 -20 -20 -20 -20 -20 -20 -20 -20 -20 -14 15 -4 -20 1 -10 23 16 19 26 23 22 6 -20 -20 -20 -20 -20 -20 -20 -20 -20
-20 -20 -20 -20 -20 -20 -20 -20 -20 -20 -20 -20 -20 -20 -2 -20 11 21 27 23 30 28 14 -20 -20 -20 -20 -20 -20 -20 -20 -20
-20 -20 -20 -20 -20 -20 -20 -20 -20 -20 -20 -20 -20 -20 -10 12 -3 24 25 30 27 26 17 -20 -20 -20 -20 -20 -20 -20 -20 -20
-20 -20 -20 -20 -20 -20 -20 -20 -20 -20 -20 -20 -20 -10 -20 -19 20 -16 16 10 28 29 27 -18 -20 -20 -20 -20 -19 -18 -14 -20
-20 -20 -20 -20 -20 -20 -20 -20 -20 -20 -20 -20 -20 -20 -11 -20 -19 17 4 5 12 25 17 13 3 -20 -20 -14 -11 -20 -20 -20
-20 -20 -20 -20 -20 -20 -20 -20 -20 -20 -14 -20 -20 -20 -20 -20 -9 4 3 7 16 -0 22 25 20 17 16 8 -15 11 -20 -7
-20 -20 -20 -20 -20 -20 -20 -20 -20 -4 4 -13 -20 -20 -20 -20 -20 -3 15 19 24 1 19 16 15 7 29 26 24 24 -20 9
3 -20 -20 -20 -20 -20 -20 -20 -20 -2 2 2 -20 -20 -20 -20 -20 -20 -20 4 23 39 16 20 20 14 2 24 30 16 26 28
-17 -20 -19 -20 -20 -20 -20 -20 -20 -20 -20 -20 6 -20 -20 -15 -18 -20 -14 24 28 30 31 32 27 31 28 33 33 29 31 34
-20 6 -17 -19 -20 -20 -20 -20 -20 -20 -14 -20 -20 -20 -20 -20 -20 -17 10 13 20 17 28 31 24 33 32 38 36 36 36 33
-20 -14 -20 -20 -20 29 -20 -20 -20 -20 -20 -20 -20 -20 5 -20 -20 -20 9 14 12 24 32 31 34 31 28 37 35 33 30 35
-6 -20 -20 -20 23 30 -20 -20 -20 -20 -20 -20 -20 -20 8 -20 -20 -20 -20 -17 6 23 31 33 31 29 36 30 34 36 35 33
-1 -20 -20 -3 23 22 -20 -20 -20 -20 -20 -20 -20 -20 -20 -20 -20 -20 -20 -20 -20 2 9 19 30 27 31 35 32 19 -4 10
-3 -20 -20 0 16 9 -20 -20 -20 -20 -20 -20 -15 -20 -20 -20 -20 -20 -20 -20 -20 -17 -7 7 23 17 30 29 -5 -12 -2 -6
7 -20 -12 15 7 10 14 -20 -20 -20 -20 -20 5 -6 -20 -20 -20 -20 -20 -20 -20 -20 -20 -20 -19 -10 -2 -10 -17 -20 -20 -20
28 17 -19 15 17 24 1 16 -20 -20 -20 -12 -20 -6 -20 -20 -20 -20 -20 -20 -20 -20 -20 -20 -20 -20 -20 -20 -20 -20 -20 -20
32 13 3 12 21 14 14 1 9 -20 -20 -20 -20 -20 -20 -20 -20 -20 -20 -20 -20 -20 -16 -5 -20 -20 -19 3 5 -20 -20 -19
23 8 16 32 36 27 32 25 11 25 6 -20 -20 -20 -20 -20 -20 -20 -20 -18 8 -20 -8 12 -19 -6 8 9 10 -12 3 9

GFSFLT1_prec_radar_114.txt.gz
Reflectivity
-20 -20 -20 -20 -20 -20 -20 -20 -20 -20 -20 -20 -20 -16 -12 -20 -20 -13 -20 22 27 30 15 25 20 23 -20 -20 -20 -20 -20 -20
-20 -20 -20 -20 -20 -20 -20 -20 -20 -20 -20 -20 -20 -20 -20 3 -20 -20 -17 24 24 39 23 28 8 -7 -20 -20 -20 -20 -20 -20
-20 -20 -20 -20 -20 -20 -20 -20 -20 -20 -20 -3 -19 6 2 -20 -20 6 -5 25 26 28 22 27 5 4 -20 -20 -20 -20 -20 -20
-20 -20 -20 -20 -20 -20 -20 -20 -20 -20 -20 -10 -4 1 -20 -17 -9 1 6 33 33 24 26 10 15 4 1 -20 -20 -17 -19 -20
-20 -20 -20 -20 -20 -11 -20 -20 -20 -20 -20 -20 -20 -20 -20 -20 -20 7 -11 24 34 27 26 9 1 3 -20 -20 -20 -20 -20 -20
-20 -20 -20 -20 -20 -20 -20 -20 -20 -20 -20 -20 -20 -20 -20 -20 -20 -1 8 4 20 32 27 12 10 -7 -20 -20 -20 -20 -20 -20
-20 -20 -20 -20 -20 -20 -20 -20 -20 -20 -20 -20 -20 -20 -20 -18 -12 -14 19 7 1 22 32 26 25 2 -6 -20 -20 -20 -20 -20
-20 -20 -20 -20 -20 -20 -20 -20 -20 -20 -20 -20 -20 -20 -20 -18 -14 -20 -17 8 21 -4 7 17 17 3 -20 -20 -20 -20 -20 -20
-20 -20 -20 -20 -13 -20 -20 -20 -20 -20 -20 -20 -20 -20 -20 -20 -20 -20 -20 -6 -12 5 7 6 24 22 -12 16 -19 -3 -15 -20
-20 -20 -20 -20 -20 -20 -20 -20 -20 -20 -20 -20 -20 -20 -20 -20 -20 -20 -20 -20 -9 9 14 22 19 16 14 21 26 22 25 24
-20 -20 -20 7 -20 -20 -20 -20 -5 27 -20 -20 -13 -16 -11 -20 -20 -20 -20 -20 -20 -3 31 30 38 33 3 21 24 12 25 30
-20 -20 -20 -13 -20 -20 -20 -20 -15 -2 -20 -20 4 12 11 -20 -20 -20 -20 -20 -20 -5 30 30 32 27 19 28 35 27 31 25
-20 -20 -20 -20 -20 -20 -20 -20 -6 22 -20 -13 12 12 3 -12 -20 -20 -13 14 -18 -12 25 31 29 26 36 29 30 34 37 33
-20 -20 -12 -20 12 -18 -20 -20 10 7 -20 -17 16 16 9 7 -20 -20 -19 -13 10 -15 11 25 31 32 28 32 33 39 38 33
12 21 13 -7 18 17 32 14 10 1 -20 -20 5 11 11 10 -1 -20 -20 -20 6 13 15 -4 19 32 33 31 39 36 26 29
34 31 22 -0 -3 24 30 21 21 -20 -20 -20 9 9 10 13 11 8 6 -15 -19 -10 5 15 16 18 28 27 34 24 32 24
31 36 19 13 -20 10 26 19 28 -20 -20 -20 -20 1 7 12 11 9 9 2 -15 -20 -12 -8 17 19 28 29 34 21 21 10
22 36 20 21 8 22 14 20 14 -20 -20 -20 -20 -7 7 9 15 17 22 13 11 15 -5 -8 0 15 24 25 24 18 -10 -19
13 25 7 26 28 27 37 10 13 5 -12 -20 -16 3 -16 12 14 15 -5 14 15 11 11 16 18 -0 18 8 3 -18 -16 -13

GFSFLT1_prec_radar_117.txt.gz
Reflectivity
-20 -20 -20 -20 -20 -20 -20 -20 -20 -20 -20 -20 -20 -18 -20 3 -16 -11 -7 15 1 5 17 33 24 11 -1 7 -20 -20 -20 -20
-20 -20 -20 -20 -20 -20 -20 -20 -20 -20 -20 -20 -20 -20 0 -20 7 0 2 -20 12 9 40 28 29 32 5 4 -20 -20 -20 -20
-20 -20 -20 -20 -20 -20 -20 -20 -20 -20 -20 -20 -20 -17 -6 5 -4 -2 -20 -7 -2 21 34 35 24 4 27 -15 -14 -20 -20 -20
-20 -20 -20 -20 -20 -20 -20 -20 -20 -20 -20 -17 -20 -13 -8 8 -9 -10 -20 -10 -8 23 30 28 28 23 11 -19 -20 -20 -20 -20
-20 -20 -20 -20 -20 -20 -20 -20 -20 -20 -20 -20 -20 -20 -17 15 -20 -20 -1 -17 -8 28 21 35 30 18 -6 4 -12 -20 -20 -20
-20 -20 -20 -20 -20 -20 -20 -20 -20 -20 -20 -20 -20 14 -18 -0 -2 -8 14 5 6 9 32 33 33 23 2 -15 -15 -20 -4 -20
-20 -20 -20 -20 -20 -20 -20 -20 -15 -7 -20 -20 -20 -20 -19 -6 3 4 8 3 8 16 24 32 30 21 -3 13 -20 -20 -20 -20
-20 -20 -20 -20 -20 -20 -20 -20 15 -15 -20 -20 -20 -20 -20 -20 -12 -7 6 13 12 -20 -6 30 34 33 2 14 -13 -20 -20 -20
-20 -20 -20 -20 -20 -20 -12 15 9 8 -20 22 25 -20 -20 -20 -19 4 6 6 -5 -1 -8 4 32 31 30 16 11 -15 -20 -20
-20 -20 -20 -20 -20 -20 -20 5 9 9 -1 -15 -20 -20 -20 -20 -19 2 13 2 9 25 -12 -8 -7 13 31 28 9 -20 -16 -1
-20 -20 -20 -20 -20 -20 -20 -0 7 -8 -6 -20 -20 -20 -20 -20 -12 -20 -18 4 12 19 12 18 9 -6 1 3 -6 -5 -16 -18
-20 -20 -20 -20 -20 -20 -20 0 18 19 -20 -10 -20 -20 -20 -20 3 -14 -20 -20 -5 -3 19 27 29 40 22 3 10 -5 -1 -8
-20 -20 -20 -20 -20 11 18 4 11 -2 -20 -19 -20 -20 -20 -19 3 2 4 -20 -3 -20 -20 -7 31 40 29 35 33 25 11 -3
-20 -20 -20 -20 -20 1 19 13 11 -3 -8 -20 -19 -20 -20 -20 -9 -20 0 1 -20 -20 -20 6 18 27 26 25 32 26 33 32
-20 -20 -20 -5 -8 -13 12 12 11 27 27 -6 -4 -20 -20 -20 -14 -1 -20 -20 1 -11 -11 9 24 29 33 29 28 34 37 36
-20 -20 -5 24 2 -20 18 23 21 27 25 2 -9 -20 -20 -20 -20 14 -20 -20 11 5 6 -6 21 27 32 30 26 28 39 37
-20 -20 3 33 3 3 12 19 28 25 23 -10 -19 -20 -20 -20 -20 -3 -3 -6 11 10 4 5 5 5 25 25 30 36 37 26
-20 -20 2 25 12 3 26 21 24 20 13 -14 -6 -20 -20 -20 -14 4 9 -19 1 -1 6 -10 0 11 20 23 30 30 18 32
-20 -14 0 8 24 26 18 27 21 18 10 -14 -13 -20 -20 -18 -10 3 6 8 5 -15 -2 -0 13 12 14 22 27 28 26 16

GFSFLT1_prec_radar_120.txt.gz
Reflectivity
-20 -14 -20 -20 -20 -20 -20 -20 -20 -20 -20 3 9 -2 -9 -3 0 -5 4 9 -1 4 -3 5 19 22 30 21 26 -5 -17 -20
-20 -20 -20 -20 -20 -20 -20 -20 -20 -20 -19 6 -20 -11 -20 -20 -0 -2 -20 9 12 8 16 21 -3 16 31 30 12 5 -9 -4
-20 -20 -20 -20 -20 -20 -20 -20 -20 -20 -8 -15 4 -19 -20 -4 -0 4 -13 0 11 12 14 7 23 22 23 30 23 18 -10 -16
-20 -20 -20 -20 -20 -20 -20 -20 -20 -20 -20 -15 0 1 3 3 6 4 -5 9 7 14 3 23 35 36 31 37 22 16 9 -11
-20 -20 -20 -20 -20 -20 -20 -20 -20 -20 -20 -20 -3 -15 -20 -20 -4 7 5 14 13 -4 -20 12 34 32 30 32 29 4 18 -20
-20 -20 -20 -20 -20 -20 -20 -20 -20 5 -3 0 -12 -20 -20 -17 -2 -8 14 -9 -19 3 -15 2 24 29 27 25 26 22 9 -20
-20 -20 -20 -20 -20 -20 -17 -16 -3 -20 3 -5 1 -13 -20 3 7 8 13 -10 -2 -20 -10 17 32 35 26 22 21 31 -8 -20
-20 -20 -20 -20 -20 -20 -20 -20 -5 3 -4 -11 -3 -19 -20 -6 5 10 9 4 -20 -20 -6 7 27 24 36 28 35 15 -7 -10
-20 -20 -20 -20 -20 -20 -20 -20 -19 5 11 -4 -20 -20 -19 -13 2 6 0 4 1 -20 -4 -1 27 30 31 28 26 16 -4 -19
-20 -20 -20 -20 -20 -20 -20 -20 0 3 -16 -15 10 20 -6 -8 5 11 15 -9 -20 1 0 -4 4 23 32 31 26 21 -11 -19
-20 -20 -20 -20 -20 -20 -20 7 -15 4 -13 5 2 -0 -4 3 5 13 16 -4 8 -1 24 16 -8 -18 9 34 30 13 16 14
-20 -20 -20 -20 -20 -20 -20 -18 -1 3 5 -3 16 26 28 7 -20 -20 -20 -20 -11 10 15 21 29 16 11 -7 30 31 21 0
-20 -20 -20 -20 -20 -20 -20 -20 6 -13 -15 6 21 21 1 8 -5 4 -20 -13 8 6 -6 13 34 18 26 29 -18 3 19 11
-20 -20 -20 -20 -20 -20 -20 -20 -20 2 10 12 21 13 -0 7 5 8 -20 -20 -12 -7 6 3 2 13 24 38 31 16 -16 -20
-20 -20 -20 -20 -20 -20 -20 -20 -8 10 11 11 21 16 -16 -4 9 -18 -20 -20 -3 -3 3 -7 -20 16 30 28 30 27 21 24
-20 -20 -3 -20 -20 -20 -20 -20 8 15 24 23 20 -14 1 6 13 -20 -18 3 1 5 4 -20 -5 -7 21 22 27 34 34 36
-20 -20 -20 -20 -20 -20 -20 -20 7 19 26 25 20 6 13 13 12 -20 -7 -20 -6 -3 -2 -20 -20 10 22 32 31 32 33 32
-20 -20 -20 -20 -20 -20 -16 1 20 20 23 23 15 11 11 15 3 -1 -2 -20 -20 -14 -20 -20 -19 -19 3 24 26 23 30 32
-20 -20 -20 -20 -20 -20 -20 18 15 18 17 26 5 10 4 15 4 -6 -20 -20 -17 -7 -4 13 -12 2 -20 -9 11 20 28 14